Location: Bodest
(46.3000°N, 22.5667°E)
Time: 23:13:39
(UTC+00:00)

Cosmos 839 Rocket - Pass Details

Date: 16 October 2021
Orbit: 964 x 2089 km, 65.9° (Epoch: 26 November)

Event Time Altitude Azimuth Distance (km) Brightness Sun altitude
Rises 18:32:39 0° 324° (NW) 4,473 8.2 -30.0°
Reaches altitude 10° 18:35:48 10° 323° (NW) 3,336 7.4 -30.5°
Maximum altitude 18:43:32 78° 239° (WSW) 1,137 4.2 -31.8°
Enters shadow 18:43:48 77° 213° (SSW) 1,136 4.2 -31.8°
